Miscellaneous Local Product
Issued by NWS North Platte, NE

Home | Current Version | Previous Version | Graphics & Text | Print | Product List | Glossary On
Versions: 1 2 3 4 5 6 7 8 9 10 11 12 13 14 15 16 17 18 19 20 21 22 23 24 25 26 27 28 29 30 31 32 33 34 35 36 37 38 39 40 41 42 43 44 45 46 47 48 49 50
432
AXUS43 KLBF 102310
MISLBF


WESTERN AND NORTH CENTRAL NEBRASKA HOURLY WEATHER ROUNDUP
NATIONAL WEATHER SERVICE NORTH PLATTE NE
500 PM CST WED FEB 10 2016

NOTE: "FAIR" INDICATES FEW OR NO CLOUDS BELOW 12,000 FEET WITH NO
SIGNIFICANT WEATHER AND/OR OBSTRUCTIONS TO VISIBILITY.

NOTE: STATIONS NOT REPORTING VARIABLES SUCH AS SKY/WEATHER OR
PRESSURE ARE PROVIDED BY THE NEBRASKA DEPARTMENT OF
ROADS...RAWS...AND APRS NETWORKS...AND ARE NOT UNDER
NATIONAL WEATHER SERVICE QUALITY CONTROL.

...OBSERVATIONS IN AND NEAR THE EASTERN PANHANDLE OF NEBRASKA...

CITY           SKY/WX    TMP DP  RH WIND       PRES   REMARKS
PINE RIDGE     CLOUDY    57  25  29 N14       29.98R
CHADRON        CLOUDY    58  27  30 NW21G29   29.97R
ALLIANCE       CLOUDY    45  31  58 W17       29.99R
SIDNEY         CLOUDY    44  29  55 NW13      30.04R
CRESCENT LAKE    N/A     58  26  29 NW15G24     N/A
BIG SPRINGS      N/A     48  35  60 NW3         N/A
$$

...OBSERVATIONS IN NORTH CENTRAL NEBRASKA...

CITY           SKY/WX    TMP DP  RH WIND       PRES   REMARKS
VALENTINE      CLOUDY    51  31  46 N13       29.95R
THEDFORD       SUNNY     60  29  30 NW12      29.93R
AINSWORTH      SUNNY     52  30  43 N17G23    29.94R
O`NEILL        CLEAR     38  29  69 E8        29.93R WCI  32
ORD            CLEAR     53  31  42 N6        29.88R
BROKEN BOW     SUNNY     52  30  43 NW12      29.90R
VALENTINE NWR    N/A     58  26  29 NW20G26     N/A
BUTTE            N/A     38  28  66 NE12        N/A  WCI  30
HALSEY           N/A     62  24  23 NW9G21      N/A
CHAMBERS         N/A     41  26  55 E5          N/A
EWING            N/A     34  29  80 NE3         N/A
$$

...OBSERVATIONS IN SOUTHWEST NEBRASKA AND FAR NORTHEAST COLORADO...

CITY           SKY/WX    TMP DP  RH WIND       PRES   REMARKS
HOLYOKE        FAIR      59  30  33 NW10      30.03R
IMPERIAL       SUNNY     49  30  48 W13       29.99R
OGALLALA       SUNNY     50  32  50 NW8       29.97R
NORTH PLATTE   SUNNY     50  34  54 W8        29.93R
MCCOOK         CLOUDY    49  31  49 W3        29.96R
LEXINGTON      SUNNY     47  32  57 W10       29.91R
PAXTON           N/A     50  38  62 SW6         N/A
STAPLETON        N/A     55  32  42 CALM        N/A
GOTHENBURG       N/A     55  31  39 NW5         N/A
CALLAWAY         N/A     50  35  56 W6          N/A
$$

...OBSERVATIONS IN CENTRAL LINCOLN COUNTY AREA...

CITY           SKY/WX    TMP DP  RH WIND       PRES   REMARKS
N.P. AIRPORT   SUNNY     50  34  54 W8        29.93R
N.P. DOWNTOWN    N/A     57  35  44 W3          N/A
N.P. SOUTHEAST   N/A     56  35  46 W3          N/A
N.P. HILLCREST   N/A     57  35  43 NW12        N/A
$$

...SOME OBSERVATIONS FROM AROUND THE REGION...

CITY           SKY/WX    TMP DP  RH WIND       PRES   REMARKS
DENVER         CLOUDY    61  15  16 W16       30.09R
LARAMIE        CLOUDY    41  20  43 W13       30.18R
CHEYENNE       CLOUDY    51  18  27 NW20G31   30.12R
SCOTTSBLUFF    CLOUDY    59  24  26 NW17      30.02R
RAPID CITY     SUNNY     59  23  25 NW24G31   29.97R
BISMARCK       CLOUDY    24  15  68 NE9       30.12R WCI  14
PIERRE         CLOUDY    37  26  64 NE18      30.01R WCI  27
WINNER         FAIR      43  30  60 N14       29.97R
SIOUX FALLS    CLOUDY    16  10  77 E13       30.05R WCI   2
OMAHA          PTCLDY    36  24  62 E8        29.96R WCI  30
GRAND ISLAND   CLEAR     49  32  52 W5        29.89R
KANSAS CITY    PTCLDY    47  23  38 SE6       29.93R
WICHITA        SUNNY     71  32  23 SW7       29.88F
OKLAHOMA CITY  SUNNY     71  31  22 SW18      29.97F
LIBERAL        SUNNY     77  19  11 NW10      30.01S
HAYS           SUNNY     61  28  29 NW15      29.95R
GOODLAND       SUNNY     57  32  38 NW8       30.03R
$$




USA.gov is the U.S. government's official web portal to all federal, state and local government web resources and services.